Time,TemperatureF,DewpointF,PressureIn,WindDirection,WindDirectionDegrees,WindSpeedMPH,WindSpeedGustMPH,Humidity,HourlyPrecipIn,Conditions,Clouds,dailyrainin,SoftwareType,DateUTC
2013-01-01 00:00:00,30.7,23.4,29.73,WSW,250,0.0,5.0,74,0.00,,,0.00,WeatherCatV1.10B1784,2013-01-01 05:00:00,
2013-01-01 00:05:00,30.7,23.4,29.73,WSW,248,0.0,2.0,74,0.00,,,0.00,WeatherCatV1.10B1784,2013-01-01 05:05:00,
2013-01-01 00:10:00,30.8,23.2,29.73,SW,218,0.0,10.0,73,0.00,,,0.00,WeatherCatV1.10B1784,2013-01-01 05:10:00,
2013-01-01 00:15:00,30.8,23.5,29.73,WSW,244,5.0,5.0,74,0.00,,,0.00,WeatherCatV1.10B1784,2013-01-01 05:15:00,
2013-01-01 00:20:00,30.9,23.6,29.73,SW,229,2.0,4.0,74,0.00,,,0.00,WeatherCatV1.10B1784,2013-01-01 05:20:00,
2013-01-01 00:25:00,31.0,23.7,29.72,SSE,159,3.0,5.0,74,0.00,,,0.00,WeatherCatV1.10B1784,2013-01-01 05:25:00,
2013-01-01 00:30:00,30.9,23.6,29.73,WSW,240,3.0,7.0,74,0.00,,,0.00,WeatherCatV1.10B1784,2013-01-01 05:30:00,
2013-01-01 00:35:00,31.1,23.5,29.72,WSW,241,0.0,7.0,73,0.00,,,0.00,WeatherCatV1.10B1784,2013-01-01 05:35:00,
2013-01-01 00:40:00,31.2,23.9,29.72,SW,227,1.0,3.0,74,0.00,,,0.00,WeatherCatV1.10B1784,2013-01-01 05:40:00,
2013-01-01 00:45:00,31.1,23.8,29.72,South,191,2.0,7.0,74,0.00,,,0.00,WeatherCatV1.10B1784,2013-01-01 05:45:00,
2013-01-01 00:50:00,31.1,23.8,29.71,West,262,0.0,5.0,74,0.00,,,0.00,WeatherCatV1.10B1784,2013-01-01 05:50:00,
2013-01-01 00:55:00,31.3,23.7,29.71,SW,235,5.0,8.0,73,0.00,,,0.00,WeatherCatV1.10B1784,2013-01-01 05:55:00,
2013-01-01 01:00:00,31.5,23.5,29.72,SW,231,0.0,7.0,72,0.00,,,0.00,WeatherCatV1.10B1784,2013-01-01 06:00:00,
2013-01-01 01:05:00,31.6,24.0,29.72,SW,230,0.0,0.0,73,0.00,,,0.00,WeatherCatV1.10B1784,2013-01-01 06:05:00,
2013-01-01 01:10:00,31.5,23.9,29.72,WSW,244,5.0,7.0,73,0.00,,,0.00,WeatherCatV1.10B1784,2013-01-01 06:10:00,
2013-01-01 01:15:00,31.7,24.1,29.71,SSW,202,0.0,4.0,73,0.00,,,0.00,WeatherCatV1.10B1784,2013-01-01 06:15:00,
2013-01-01 01:20:00,31.7,23.7,29.72,SW,217,3.0,5.0,72,0.00,,,0.00,WeatherCatV1.10B1784,2013-01-01 06:20:00,
2013-01-01 01:25:00,31.8,23.8,29.72,WSW,244,2.0,4.0,72,0.00,,,0.00,WeatherCatV1.10B1784,2013-01-01 06:25:00,
2013-01-01 01:30:00,31.7,24.1,29.72,SSE,168,1.0,2.0,73,0.00,,,0.00,WeatherCatV1.10B1784,2013-01-01 06:30:00,
2013-01-01 01:35:00,31.7,24.4,29.72,South,171,1.0,4.0,74,0.00,,,0.00,WeatherCatV1.10B1784,2013-01-01 06:35:00,
2013-01-01 01:40:00,31.8,24.1,29.72,SW,231,4.0,4.0,73,0.00,,,0.00,WeatherCatV1.10B1784,2013-01-01 06:40:00,
2013-01-01 01:45:00,31.9,24.2,29.73,SW,223,3.0,9.0,73,0.00,,,0.00,WeatherCatV1.10B1784,2013-01-01 06:45:00,
2013-01-01 01:50:00,32.3,24.6,29.72,South,175,3.0,7.0,73,0.00,,,0.00,WeatherCatV1.10B1784,2013-01-01 06:50:00,
2013-01-01 01:55:00,32.2,24.2,29.73,SW,220,3.0,7.0,72,0.00,,,0.00,WeatherCatV1.10B1784,2013-01-01 06:55:00,
2013-01-01 02:00:00,32.2,24.9,29.72,SW,221,3.0,4.0,74,0.00,,,0.00,WeatherCatV1.10B1784,2013-01-01 07:00:00,
2013-01-01 02:05:00,32.1,24.4,29.72,SW,214,4.0,7.0,73,0.00,,,0.00,WeatherCatV1.10B1784,2013-01-01 07:05:00,
2013-01-01 02:10:00,32.4,25.1,29.72,SSW,199,4.0,5.0,74,0.00,,,0.00,WeatherCatV1.10B1784,2013-01-01 07:10:00,
2013-01-01 02:15:00,32.3,25.0,29.71,SSE,160,0.0,5.0,74,0.00,,,0.00,WeatherCatV1.10B1784,2013-01-01 07:15:00,
2013-01-01 02:20:00,32.2,24.9,29.71,SSE,160,0.0,0.0,74,0.00,,,0.00,WeatherCatV1.10B1784,2013-01-01 07:20:00,
2013-01-01 02:25:00,32.1,24.8,29.72,SSE,157,0.0,5.0,74,0.00,,,0.00,WeatherCatV1.10B1784,2013-01-01 07:25:00,
2013-01-01 02:30:00,32.0,25.0,29.71,SSE,157,0.0,2.0,75,0.00,,,0.00,WeatherCatV1.10B1784,2013-01-01 07:30:00,
2013-01-01 02:35:00,32.0,25.0,29.71,SW,235,2.0,6.0,75,0.00,,,0.00,WeatherCatV1.10B1784,2013-01-01 07:35:00,
2013-01-01 02:40:00,32.3,25.3,29.71,SW,232,2.0,2.0,75,0.00,,,0.00,WeatherCatV1.10B1784,2013-01-01 07:40:00,
2013-01-01 02:45:00,32.2,24.9,29.70,SW,232,0.0,1.0,74,0.00,,,0.00,WeatherCatV1.10B1784,2013-01-01 07:45:00,
2013-01-01 02:50:00,32.3,25.0,29.71,SW,232,0.0,0.0,74,0.00,,,0.00,WeatherCatV1.10B1784,2013-01-01 07:50:00,
2013-01-01 02:55:00,32.3,25.3,29.71,SW,215,3.0,4.0,75,0.00,,,0.00,WeatherCatV1.10B1784,2013-01-01 07:55:00,
2013-01-01 03:00:00,32.2,25.2,29.71,South,181,4.0,4.0,75,0.00,,,0.00,WeatherCatV1.10B1784,2013-01-01 08:00:00,
2013-01-01 03:05:00,32.1,25.4,29.71,South,181,0.0,0.0,76,0.00,,,0.00,WeatherCatV1.10B1784,2013-01-01 08:05:00,
2013-01-01 03:10:00,32.1,25.7,29.71,South,181,2.0,2.0,77,0.00,,,0.00,WeatherCatV1.10B1784,2013-01-01 08:10:00,
2013-01-01 03:15:00,31.9,25.5,29.71,South,181,0.0,4.0,77,0.00,,,0.00,WeatherCatV1.10B1784,2013-01-01 08:15:00,
2013-01-01 03:20:00,31.9,25.2,29.70,SSW,192,2.0,4.0,76,0.00,,,0.00,WeatherCatV1.10B1784,2013-01-01 08:20:00,
2013-01-01 03:25:00,32.0,25.6,29.70,SSW,192,2.0,3.0,77,0.00,,,0.00,WeatherCatV1.10B1784,2013-01-01 08:25:00,
2013-01-01 03:30:00,31.9,25.5,29.70,SSW,192,0.0,2.0,77,0.00,,,0.00,WeatherCatV1.10B1784,2013-01-01 08:30:00,
2013-01-01 03:35:00,32.0,25.3,29.70,South,183,0.0,0.0,76,0.00,,,0.00,WeatherCatV1.10B1784,2013-01-01 08:35:00,
2013-01-01 03:40:00,32.0,25.6,29.69,South,170,0.0,3.0,77,0.00,,,0.00,WeatherCatV1.10B1784,2013-01-01 08:40:00,
2013-01-01 03:45:00,31.9,25.5,29.69,SSE,168,1.0,5.0,77,0.00,,,0.00,WeatherCatV1.10B1784,2013-01-01 08:45:00,
2013-01-01 03:50:00,32.1,25.4,29.69,South,179,4.0,8.0,76,0.00,,,0.00,WeatherCatV1.10B1784,2013-01-01 08:50:00,
2013-01-01 03:55:00,32.3,25.9,29.69,South,171,4.0,4.0,77,0.00,,,0.00,WeatherCatV1.10B1784,2013-01-01 08:55:00,
2013-01-01 04:00:00,32.3,25.6,29.68,SSE,161,3.0,4.0,76,0.00,,,0.00,WeatherCatV1.10B1784,2013-01-01 09:00:00,
2013-01-01 04:05:00,32.4,25.4,29.69,SW,226,1.0,4.0,75,0.00,,,0.00,WeatherCatV1.10B1784,2013-01-01 09:05:00,
2013-01-01 04:10:00,32.5,25.8,29.69,WSW,239,0.0,3.0,76,0.00,,,0.00,WeatherCatV1.10B1784,2013-01-01 09:10:00,
2013-01-01 04:15:00,32.6,25.6,29.69,WSW,246,0.0,5.0,75,0.00,,,0.00,WeatherCatV1.10B1784,2013-01-01 09:15:00,
2013-01-01 04:20:00,32.7,25.7,29.69,WSW,248,1.0,6.0,75,0.00,,,0.00,WeatherCatV1.10B1784,2013-01-01 09:20:00,
2013-01-01 04:25:00,32.7,26.0,29.70,SW,219,1.0,3.0,76,0.00,,,0.00,WeatherCatV1.10B1784,2013-01-01 09:25:00,
2013-01-01 04:30:00,32.7,25.7,29.70,WSW,248,6.0,11.0,75,0.00,,,0.00,WeatherCatV1.10B1784,2013-01-01 09:30:00,
2013-01-01 04:35:00,32.9,25.9,29.70,SSW,198,3.0,9.0,75,0.00,,,0.00,WeatherCatV1.10B1784,2013-01-01 09:35:00,
2013-01-01 04:40:00,33.0,26.0,29.70,SW,223,2.0,8.0,75,0.00,,,0.00,WeatherCatV1.10B1784,2013-01-01 09:40:00,
2013-01-01 04:45:00,32.9,25.9,29.70,SW,233,6.0,7.0,75,0.00,,,0.00,WeatherCatV1.10B1784,2013-01-01 09:45:00,
2013-01-01 04:50:00,33.0,26.0,29.69,SW,222,2.0,6.0,75,0.00,,,0.00,WeatherCatV1.10B1784,2013-01-01 09:50:00,
2013-01-01 04:55:00,32.9,25.5,29.70,WSW,245,5.0,11.0,74,0.00,,,0.00,WeatherCatV1.10B1784,2013-01-01 09:55:00,
2013-01-01 05:00:00,33.0,25.6,29.69,SW,215,3.0,12.0,74,0.00,,,0.00,WeatherCatV1.10B1784,2013-01-01 10:00:00,
2013-01-01 05:05:00,33.2,25.8,29.70,WSW,244,2.0,12.0,74,0.00,,,0.00,WeatherCatV1.10B1784,2013-01-01 10:05:00,
2013-01-01 05:10:00,33.2,25.8,29.69,WSW,242,4.0,7.0,74,0.00,,,0.00,WeatherCatV1.10B1784,2013-01-01 10:10:00,
2013-01-01 05:15:00,33.1,25.7,29.69,SW,235,7.0,11.0,74,0.00,,,0.00,WeatherCatV1.10B1784,2013-01-01 10:15:00,
2013-01-01 05:20:00,33.2,25.8,29.70,WSW,244,4.0,8.0,74,0.00,,,0.00,WeatherCatV1.10B1784,2013-01-01 10:20:00,
2013-01-01 05:25:00,33.2,25.8,29.70,WSW,240,4.0,6.0,74,0.00,,,0.00,WeatherCatV1.10B1784,2013-01-01 10:25:00,
2013-01-01 05:30:00,33.2,26.1,29.70,WSW,245,5.0,5.0,75,0.00,,,0.00,WeatherCatV1.10B1784,2013-01-01 10:30:00,
2013-01-01 05:35:00,33.2,26.1,29.70,WSW,248,5.0,10.0,75,0.00,,,0.00,WeatherCatV1.10B1784,2013-01-01 10:35:00,
2013-01-01 05:40:00,33.4,26.0,29.70,WSW,238,6.0,8.0,74,0.00,,,0.00,WeatherCatV1.10B1784,2013-01-01 10:40:00,
2013-01-01 05:45:00,33.4,26.0,29.70,SW,222,3.0,7.0,74,0.00,,,0.00,WeatherCatV1.10B1784,2013-01-01 10:45:00,
2013-01-01 05:50:00,33.4,26.0,29.70,WSW,257,3.0,6.0,74,0.00,,,0.00,WeatherCatV1.10B1784,2013-01-01 10:50:00,
2013-01-01 05:55:00,33.5,26.1,29.70,WSW,251,0.0,6.0,74,0.00,,,0.00,WeatherCatV1.10B1784,2013-01-01 10:55:00,
2013-01-01 06:00:00,33.4,26.0,29.70,WSW,250,2.0,13.0,74,0.00,,,0.00,WeatherCatV1.10B1784,2013-01-01 11:00:00,
2013-01-01 06:05:00,33.4,26.0,29.70,WSW,250,2.0,13.0,74,0.00,,,0.00,WeatherCatV1.10B1784,2013-01-01 11:05:00,
2013-01-01 06:10:00,33.6,26.2,29.70,WSW,248,4.0,15.0,74,0.00,,,0.00,WeatherCatV1.10B1784,2013-01-01 11:10:00,
2013-01-01 06:15:00,33.6,26.2,29.70,WSW,248,4.0,15.0,74,0.00,,,0.00,WeatherCatV1.10B1784,2013-01-01 11:15:00,
2013-01-01 06:20:00,33.6,26.2,29.70,WSW,248,4.0,15.0,74,0.00,,,0.00,WeatherCatV1.10B1784,2013-01-01 11:20:00,
2013-01-01 06:25:00,33.6,26.2,29.70,WSW,248,4.0,15.0,74,0.00,,,0.00,WeatherCatV1.10B1784,2013-01-01 11:25:00,
2013-01-01 06:30:00,33.6,26.2,29.70,WSW,248,4.0,15.0,74,0.00,,,0.00,WeatherCatV1.10B1784,2013-01-01 11:30:00,
2013-01-01 06:35:00,33.6,26.2,29.70,WSW,248,4.0,15.0,74,0.00,,,0.00,WeatherCatV1.10B1784,2013-01-01 11:35:00,
2013-01-01 06:40:00,33.9,25.8,29.71,WSW,248,3.0,11.0,72,0.00,,,0.00,WeatherCatV1.10B1784,2013-01-01 11:40:00,
2013-01-01 06:45:00,33.9,25.8,29.71,WSW,248,3.0,11.0,72,0.00,,,0.00,WeatherCatV1.10B1784,2013-01-01 11:45:00,
2013-01-01 06:50:00,33.9,25.8,29.71,WSW,248,3.0,11.0,72,0.00,,,0.00,WeatherCatV1.10B1784,2013-01-01 11:50:00,
2013-01-01 06:55:00,33.9,25.8,29.71,WSW,248,3.0,11.0,72,0.00,,,0.00,WeatherCatV1.10B1784,2013-01-01 11:55:00,
2013-01-01 07:00:00,33.9,25.8,29.71,WSW,248,3.0,11.0,72,0.00,,,0.00,WeatherCatV1.10B1784,2013-01-01 12:00:00,
2013-01-01 07:05:00,33.9,25.8,29.71,WSW,248,3.0,11.0,72,0.00,,,0.00,WeatherCatV1.10B1784,2013-01-01 12:05:00,
2013-01-01 07:10:00,34.1,25.4,29.72,WSW,248,4.0,14.0,70,0.00,,,0.00,WeatherCatV1.10B1784,2013-01-01 12:10:00,
2013-01-01 07:15:00,34.1,25.4,29.72,WSW,248,4.0,14.0,70,0.00,,,0.00,WeatherCatV1.10B1784,2013-01-01 12:15:00,
2013-01-01 07:20:00,34.1,25.4,29.72,WSW,248,4.0,14.0,70,0.00,,,0.00,WeatherCatV1.10B1784,2013-01-01 12:20:00,
2013-01-01 07:25:00,34.1,25.4,29.72,WSW,248,4.0,14.0,70,0.00,,,0.00,WeatherCatV1.10B1784,2013-01-01 12:25:00,
2013-01-01 07:30:00,34.1,25.4,29.72,WSW,248,4.0,14.0,70,0.00,,,0.00,WeatherCatV1.10B1784,2013-01-01 12:30:00,
2013-01-01 07:35:00,34.1,25.4,29.72,WSW,248,4.0,14.0,70,0.00,,,0.00,WeatherCatV1.10B1784,2013-01-01 12:35:00,
2013-01-01 07:40:00,33.9,23.4,29.73,WNW,292,4.0,19.0,65,0.00,,,0.00,WeatherCatV1.10B1784,2013-01-01 12:40:00,
2013-01-01 07:45:00,33.9,23.4,29.73,WNW,292,4.0,19.0,65,0.00,,,0.00,WeatherCatV1.10B1784,2013-01-01 12:45:00,
2013-01-01 07:50:00,33.9,23.4,29.73,WNW,292,4.0,19.0,65,0.00,,,0.00,WeatherCatV1.10B1784,2013-01-01 12:50:00,
2013-01-01 07:55:00,33.9,23.4,29.73,WNW,292,4.0,19.0,65,0.00,,,0.00,WeatherCatV1.10B1784,2013-01-01 12:55:00,
2013-01-01 08:00:00,33.9,23.4,29.73,WNW,292,4.0,19.0,65,0.00,,,0.00,WeatherCatV1.10B1784,2013-01-01 13:00:00,
2013-01-01 08:05:00,33.9,23.4,29.73,WNW,292,4.0,19.0,65,0.00,,,0.00,WeatherCatV1.10B1784,2013-01-01 13:05:00,
2013-01-01 08:10:00,33.9,21.9,29.73,WNW,292,5.0,18.0,61,0.00,,,0.00,WeatherCatV1.10B1784,2013-01-01 13:10:00,
2013-01-01 08:15:00,33.9,21.9,29.73,WNW,292,5.0,18.0,61,0.00,,,0.00,WeatherCatV1.10B1784,2013-01-01 13:15:00,
2013-01-01 08:20:00,33.9,21.9,29.73,WNW,292,5.0,18.0,61,0.00,,,0.00,WeatherCatV1.10B1784,2013-01-01 13:20:00,
2013-01-01 08:25:00,33.9,21.9,29.73,WNW,292,5.0,18.0,61,0.00,,,0.00,WeatherCatV1.10B1784,2013-01-01 13:25:00,
2013-01-01 08:30:00,33.9,21.9,29.73,WNW,292,5.0,18.0,61,0.00,,,0.00,WeatherCatV1.10B1784,2013-01-01 13:30:00,
2013-01-01 08:35:00,33.9,21.9,29.73,WNW,292,5.0,18.0,61,0.00,,,0.00,WeatherCatV1.10B1784,2013-01-01 13:35:00,
2013-01-01 08:40:00,33.5,21.5,29.74,WNW,292,5.0,18.0,61,0.00,,,0.00,WeatherCatV1.10B1784,2013-01-01 13:40:00,
2013-01-01 08:45:00,33.5,21.5,29.74,WNW,292,5.0,18.0,61,0.00,,,0.00,WeatherCatV1.10B1784,2013-01-01 13:45:00,
2013-01-01 08:50:00,33.5,21.5,29.74,WNW,292,5.0,18.0,61,0.00,,,0.00,WeatherCatV1.10B1784,2013-01-01 13:50:00,
2013-01-01 08:55:00,33.5,21.5,29.74,WNW,292,5.0,18.0,61,0.00,,,0.00,WeatherCatV1.10B1784,2013-01-01 13:55:00,
2013-01-01 09:00:00,33.5,21.5,29.74,WNW,292,5.0,18.0,61,0.00,,,0.00,WeatherCatV1.10B1784,2013-01-01 14:00:00,
2013-01-01 09:05:00,33.5,21.5,29.74,WNW,292,5.0,18.0,61,0.00,,,0.00,WeatherCatV1.10B1784,2013-01-01 14:05:00,
2013-01-01 09:10:00,32.7,19.6,29.76,NW,315,6.0,21.0,58,0.00,,,0.00,WeatherCatV1.10B1784,2013-01-01 14:10:00,
2013-01-01 09:15:00,32.7,19.6,29.76,NW,315,6.0,21.0,58,0.00,,,0.00,WeatherCatV1.10B1784,2013-01-01 14:15:00,
2013-01-01 09:20:00,32.7,19.6,29.76,NW,315,6.0,21.0,58,0.00,,,0.00,WeatherCatV1.10B1784,2013-01-01 14:20:00,
2013-01-01 09:25:00,32.7,19.6,29.76,NW,315,6.0,21.0,58,0.00,,,0.00,WeatherCatV1.10B1784,2013-01-01 14:25:00,
2013-01-01 09:30:00,32.7,19.6,29.76,NW,315,6.0,21.0,58,0.00,,,0.00,WeatherCatV1.10B1784,2013-01-01 14:30:00,
2013-01-01 09:35:00,32.7,19.6,29.76,NW,315,6.0,21.0,58,0.00,,,0.00,WeatherCatV1.10B1784,2013-01-01 14:35:00,
2013-01-01 09:40:00,32.4,18.0,29.76,West,270,7.0,22.0,55,0.00,,,0.00,WeatherCatV1.10B1784,2013-01-01 14:40:00,
2013-01-01 09:45:00,32.4,18.0,29.76,West,270,7.0,22.0,55,0.00,,,0.00,WeatherCatV1.10B1784,2013-01-01 14:45:00,
2013-01-01 09:50:00,32.4,18.0,29.76,West,270,7.0,22.0,55,0.00,,,0.00,WeatherCatV1.10B1784,2013-01-01 14:50:00,
2013-01-01 09:55:00,32.4,18.0,29.76,West,270,7.0,22.0,55,0.00,,,0.00,WeatherCatV1.10B1784,2013-01-01 14:55:00,
2013-01-01 10:00:00,32.4,18.0,29.76,West,270,7.0,22.0,55,0.00,,,0.00,WeatherCatV1.10B1784,2013-01-01 15:00:00,
2013-01-01 10:05:00,32.4,18.0,29.76,West,270,7.0,22.0,55,0.00,,,0.00,WeatherCatV1.10B1784,2013-01-01 15:05:00,
2013-01-01 10:10:00,32.6,18.2,29.78,NW,315,6.0,22.0,55,0.00,,,0.00,WeatherCatV1.10B1784,2013-01-01 15:10:00,
2013-01-01 10:15:00,32.6,18.2,29.78,NW,315,6.0,22.0,55,0.00,,,0.00,WeatherCatV1.10B1784,2013-01-01 15:15:00,
2013-01-01 10:20:00,32.6,18.2,29.78,NW,315,6.0,22.0,55,0.00,,,0.00,WeatherCatV1.10B1784,2013-01-01 15:20:00,
2013-01-01 10:25:00,32.6,18.2,29.78,NW,315,6.0,22.0,55,0.00,,,0.00,WeatherCatV1.10B1784,2013-01-01 15:25:00,
2013-01-01 10:30:00,32.6,18.2,29.78,NW,315,6.0,22.0,55,0.00,,,0.00,WeatherCatV1.10B1784,2013-01-01 15:30:00,
2013-01-01 10:35:00,32.6,18.2,29.78,NW,315,6.0,22.0,55,0.00,,,0.00,WeatherCatV1.10B1784,2013-01-01 15:35:00,
2013-01-01 10:40:00,31.9,17.2,29.79,WNW,292,5.0,14.0,54,0.00,,,0.00,WeatherCatV1.10B1784,2013-01-01 15:40:00,
2013-01-01 10:45:00,31.9,17.2,29.79,WNW,292,5.0,14.0,54,0.00,,,0.00,WeatherCatV1.10B1784,2013-01-01 15:45:00,
2013-01-01 10:50:00,31.9,17.2,29.79,WNW,292,5.0,14.0,54,0.00,,,0.00,WeatherCatV1.10B1784,2013-01-01 15:50:00,
2013-01-01 10:55:00,31.9,17.2,29.79,WNW,292,5.0,14.0,54,0.00,,,0.00,WeatherCatV1.10B1784,2013-01-01 15:55:00,
2013-01-01 11:00:00,31.9,17.2,29.79,WNW,292,5.0,14.0,54,0.00,,,0.00,WeatherCatV1.10B1784,2013-01-01 16:00:00,
2013-01-01 11:05:00,31.9,17.2,29.79,WNW,292,5.0,14.0,54,0.00,,,0.00,WeatherCatV1.10B1784,2013-01-01 16:05:00,
2013-01-01 11:10:00,31.1,17.3,29.77,NW,315,5.0,20.0,56,0.00,,,0.00,WeatherCatV1.10B1784,2013-01-01 16:10:00,
2013-01-01 11:15:00,31.1,17.3,29.77,NW,315,5.0,20.0,56,0.00,,,0.00,WeatherCatV1.10B1784,2013-01-01 16:15:00,
2013-01-01 11:20:00,31.1,17.3,29.77,NW,315,5.0,20.0,56,0.00,,,0.00,WeatherCatV1.10B1784,2013-01-01 16:20:00,
2013-01-01 11:25:00,31.1,17.3,29.77,NW,315,5.0,20.0,56,0.00,,,0.00,WeatherCatV1.10B1784,2013-01-01 16:25:00,
2013-01-01 11:30:00,31.1,17.3,29.77,NW,315,5.0,20.0,56,0.00,,,0.00,WeatherCatV1.10B1784,2013-01-01 16:30:00,
2013-01-01 11:43:00,31.1,17.3,29.77,NW,315,5.0,20.0,56,0.00,,,0.00,WeatherCatV1.10B1784,2013-01-01 16:43:00,
2013-01-01 11:48:00,31.9,17.6,29.76,WNW,295,12.0,12.0,55,0.00,,,0.00,WeatherCatV1.10B1784,2013-01-01 16:48:00,
2013-01-01 11:53:00,31.9,17.2,29.76,NW,315,3.0,6.0,54,0.00,,,0.00,WeatherCatV1.10B1784,2013-01-01 16:53:00,
2013-01-01 11:58:00,32.0,16.8,29.75,West,267,0.0,6.0,53,0.00,,,0.00,WeatherCatV1.10B1784,2013-01-01 16:58:00,
2013-01-01 12:03:00,32.3,17.5,29.75,NNW,333,3.0,5.0,54,0.00,,,0.00,WeatherCatV1.10B1784,2013-01-01 17:03:00,
2013-01-01 12:08:00,32.0,15.9,29.75,West,277,7.0,19.0,51,0.00,,,0.00,WeatherCatV1.10B1784,2013-01-01 17:08:00,
2013-01-01 12:13:00,31.8,16.2,29.75,West,271,5.0,13.0,52,0.00,,,0.00,WeatherCatV1.10B1784,2013-01-01 17:13:00,
2013-01-01 12:18:00,31.3,16.2,29.75,West,281,6.0,9.0,53,0.00,,,0.00,WeatherCatV1.10B1784,2013-01-01 17:18:00,
2013-01-01 12:23:00,31.2,15.6,29.74,WNW,293,6.0,10.0,52,0.00,,,0.00,WeatherCatV1.10B1784,2013-01-01 17:23:00,
2013-01-01 12:28:00,31.3,16.2,29.74,WNW,296,4.0,16.0,53,0.00,,,0.00,WeatherCatV1.10B1784,2013-01-01 17:28:00,
2013-01-01 12:33:00,30.9,15.4,29.74,NW,308,2.0,13.0,52,0.00,,,0.00,WeatherCatV1.10B1784,2013-01-01 17:33:00,
2013-01-01 12:38:00,30.9,15.8,29.73,SW,233,6.0,10.0,53,0.00,,,0.00,WeatherCatV1.10B1784,2013-01-01 17:38:00,
2013-01-01 12:43:00,31.0,15.9,29.74,NNW,331,3.0,11.0,53,0.00,,,0.00,WeatherCatV1.10B1784,2013-01-01 17:43:00,
2013-01-01 12:48:00,30.8,16.1,29.74,WNW,292,5.0,8.0,54,0.00,,,0.00,WeatherCatV1.10B1784,2013-01-01 17:48:00,
2013-01-01 12:53:00,30.6,15.5,29.74,NW,311,2.0,11.0,53,0.00,,,0.00,WeatherCatV1.10B1784,2013-01-01 17:53:00,
2013-01-01 12:58:00,30.7,16.0,29.74,West,262,5.0,10.0,54,0.00,,,0.00,WeatherCatV1.10B1784,2013-01-01 17:58:00,
2013-01-01 13:03:00,30.6,16.4,29.74,NNW,339,4.0,7.0,55,0.00,,,0.00,WeatherCatV1.10B1784,2013-01-01 18:03:00,
2013-01-01 13:08:00,30.6,16.4,29.74,West,267,3.0,7.0,55,0.00,,,0.00,WeatherCatV1.10B1784,2013-01-01 18:08:00,
2013-01-01 13:10:00,30.6,16.4,29.74,NW,323,5.0,5.0,55,0.00,,,0.00,WeatherCatV1.10B1784,2013-01-01 18:10:00,
2013-01-01 13:15:00,30.7,16.1,29.74,NW,315,6.0,16.0,54,0.00,,,0.00,WeatherCatV1.10B1784,2013-01-01 18:15:00,
2013-01-01 13:20:00,30.7,16.1,29.74,NW,315,6.0,16.0,54,0.00,,,0.00,WeatherCatV1.10B1784,2013-01-01 18:20:00,
2013-01-01 13:25:00,30.7,16.1,29.74,NW,315,6.0,16.0,54,0.00,,,0.00,WeatherCatV1.10B1784,2013-01-01 18:25:00,
2013-01-01 13:30:00,30.7,16.1,29.74,NW,315,6.0,16.0,54,0.00,,,0.00,WeatherCatV1.10B1784,2013-01-01 18:30:00,
2013-01-01 13:35:00,30.7,16.1,29.74,NW,315,6.0,16.0,54,0.00,,,0.00,WeatherCatV1.10B1784,2013-01-01 18:35:00,
2013-01-01 13:46:00,30.7,16.1,29.74,NW,315,6.0,16.0,54,0.00,,,0.00,WeatherCatV1.10B1784,2013-01-01 18:46:00,
2013-01-01 13:51:00,30.5,16.3,29.73,WNW,292,2.0,5.0,55,0.00,,,0.00,WeatherCatV1.10B1784,2013-01-01 18:51:00,
2013-01-01 13:56:00,30.5,16.3,29.73,West,280,4.0,10.0,55,0.00,,,0.00,WeatherCatV1.10B1784,2013-01-01 18:56:00,
2013-01-01 14:01:00,30.5,16.3,29.74,WSW,257,5.0,11.0,55,0.00,,,0.00,WeatherCatV1.10B1784,2013-01-01 19:01:00,
2013-01-01 14:06:00,30.4,15.8,29.74,WNW,296,4.0,11.0,54,0.00,,,0.00,WeatherCatV1.10B1784,2013-01-01 19:06:00,
2013-01-01 14:11:00,29.9,16.1,29.73,WSW,252,4.0,15.0,56,0.00,,,0.00,WeatherCatV1.10B1784,2013-01-01 19:11:00,
2013-01-01 14:16:00,29.9,16.1,29.74,WNW,301,7.0,11.0,56,0.00,,,0.00,WeatherCatV1.10B1784,2013-01-01 19:16:00,
2013-01-01 14:21:00,30.2,16.0,29.74,WNW,288,4.0,5.0,55,0.00,,,0.00,WeatherCatV1.10B1784,2013-01-01 19:21:00,
2013-01-01 14:26:00,30.1,15.9,29.74,NW,315,3.0,10.0,55,0.00,,,0.00,WeatherCatV1.10B1784,2013-01-01 19:26:00,
2013-01-01 14:31:00,30.3,16.5,29.74,WSW,238,3.0,14.0,56,0.00,,,0.00,WeatherCatV1.10B1784,2013-01-01 19:31:00,
2013-01-01 14:36:00,30.3,17.3,29.74,North,2,3.0,5.0,58,0.00,,,0.00,WeatherCatV1.10B1784,2013-01-01 19:36:00,
2013-01-01 14:41:00,30.3,16.9,29.74,NW,324,3.0,8.0,57,0.00,,,0.00,WeatherCatV1.10B1784,2013-01-01 19:41:00,
2013-01-01 14:46:00,30.3,15.7,29.74,NW,317,10.0,12.0,54,0.00,,,0.00,WeatherCatV1.10B1784,2013-01-01 19:46:00,
2013-01-01 14:51:00,30.3,14.8,29.73,West,279,2.0,8.0,52,0.00,,,0.00,WeatherCatV1.10B1784,2013-01-01 19:51:00,
2013-01-01 14:56:00,30.4,15.3,29.75,WSW,251,3.0,15.0,53,0.00,,,0.00,WeatherCatV1.10B1784,2013-01-01 19:56:00,
2013-01-01 15:01:00,30.2,15.2,29.74,West,277,2.0,9.0,53,0.00,,,0.00,WeatherCatV1.10B1784,2013-01-01 20:01:00,
2013-01-01 15:06:00,29.8,15.2,29.74,West,273,6.0,12.0,54,0.00,,,0.00,WeatherCatV1.10B1784,2013-01-01 20:06:00,
2013-01-01 15:11:00,29.6,15.0,29.74,West,262,4.0,8.0,54,0.00,,,0.00,WeatherCatV1.10B1784,2013-01-01 20:11:00,
2013-01-01 15:16:00,29.0,14.9,29.74,West,272,6.0,11.0,55,0.00,,,0.00,WeatherCatV1.10B1784,2013-01-01 20:16:00,
2013-01-01 15:21:00,28.8,15.1,29.74,WNW,301,3.0,5.0,56,0.00,,,0.00,WeatherCatV1.10B1784,2013-01-01 20:21:00,
2013-01-01 15:26:00,28.7,15.0,29.74,West,275,5.0,5.0,56,0.00,,,0.00,WeatherCatV1.10B1784,2013-01-01 20:26:00,
2013-01-01 15:31:00,28.5,14.8,29.74,WNW,295,4.0,14.0,56,0.00,,,0.00,WeatherCatV1.10B1784,2013-01-01 20:31:00,
2013-01-01 15:36:00,28.5,14.4,29.75,North,356,6.0,11.0,55,0.00,,,0.00,WeatherCatV1.10B1784,2013-01-01 20:36:00,
2013-01-01 15:41:00,28.3,14.6,29.74,NW,312,5.0,7.0,56,0.00,,,0.00,WeatherCatV1.10B1784,2013-01-01 20:41:00,
2013-01-01 15:46:00,28.1,14.4,29.75,WNW,296,7.0,9.0,56,0.00,,,0.00,WeatherCatV1.10B1784,2013-01-01 20:46:00,
2013-01-01 15:51:00,28.0,13.9,29.75,WSW,257,2.0,6.0,55,0.00,,,0.00,WeatherCatV1.10B1784,2013-01-01 20:51:00,
2013-01-01 15:56:00,27.8,14.2,29.76,WSW,257,11.0,11.0,56,0.00,,,0.00,WeatherCatV1.10B1784,2013-01-01 20:56:00,
2013-01-01 16:01:00,27.8,14.2,29.75,WNW,291,6.0,11.0,56,0.00,,,0.00,WeatherCatV1.10B1784,2013-01-01 21:01:00,
2013-01-01 16:06:00,27.6,14.0,29.76,NW,326,11.0,13.0,56,0.00,,,0.00,WeatherCatV1.10B1784,2013-01-01 21:06:00,
2013-01-01 16:11:00,27.6,14.0,29.76,NNW,327,3.0,10.0,56,0.00,,,0.00,WeatherCatV1.10B1784,2013-01-01 21:11:00,
2013-01-01 16:16:00,27.6,14.4,29.76,WNW,284,4.0,8.0,57,0.00,,,0.00,WeatherCatV1.10B1784,2013-01-01 21:16:00,
2013-01-01 16:21:00,27.5,15.8,29.76,NNW,331,4.0,10.0,61,0.00,,,0.00,WeatherCatV1.10B1784,2013-01-01 21:21:00,
2013-01-01 16:26:00,27.4,14.2,29.76,NNW,330,7.0,10.0,57,0.00,,,0.00,WeatherCatV1.10B1784,2013-01-01 21:26:00,
2013-01-01 16:31:00,27.3,14.1,29.77,WNW,290,3.0,8.0,57,0.00,,,0.00,WeatherCatV1.10B1784,2013-01-01 21:31:00,
2013-01-01 16:36:00,27.2,14.4,29.76,West,274,2.0,6.0,58,0.00,,,0.00,WeatherCatV1.10B1784,2013-01-01 21:36:00,
2013-01-01 16:41:00,27.1,14.3,29.77,WNW,302,5.0,5.0,58,0.00,,,0.00,WeatherCatV1.10B1784,2013-01-01 21:41:00,
2013-01-01 16:46:00,27.0,14.2,29.77,NW,313,0.0,4.0,58,0.00,,,0.00,WeatherCatV1.10B1784,2013-01-01 21:46:00,
2013-01-01 16:51:00,26.9,14.1,29.77,WNW,285,2.0,9.0,58,0.00,,,0.00,WeatherCatV1.10B1784,2013-01-01 21:51:00,
2013-01-01 16:56:00,26.9,14.5,29.77,NW,321,4.0,5.0,59,0.00,,,0.00,WeatherCatV1.10B1784,2013-01-01 21:56:00,
2013-01-01 17:01:00,26.8,14.0,29.77,WNW,298,6.0,14.0,58,0.00,,,0.00,WeatherCatV1.10B1784,2013-01-01 22:01:00,
2013-01-01 17:06:00,26.8,14.0,29.78,SW,217,6.0,12.0,58,0.00,,,0.00,WeatherCatV1.10B1784,2013-01-01 22:06:00,
2013-01-01 17:11:00,26.6,13.8,29.78,West,279,4.0,6.0,58,0.00,,,0.00,WeatherCatV1.10B1784,2013-01-01 22:11:00,
2013-01-01 17:16:00,26.4,13.7,29.79,West,277,0.0,8.0,58,0.00,,,0.00,WeatherCatV1.10B1784,2013-01-01 22:16:00,
2013-01-01 17:21:00,26.3,13.6,29.80,NNW,338,1.0,4.0,58,0.00,,,0.00,WeatherCatV1.10B1784,2013-01-01 22:21:00,
2013-01-01 17:26:00,26.3,13.9,29.80,WSW,249,0.0,8.0,59,0.00,,,0.00,WeatherCatV1.10B1784,2013-01-01 22:26:00,
2013-01-01 17:31:00,26.2,13.5,29.79,West,267,3.0,7.0,58,0.00,,,0.00,WeatherCatV1.10B1784,2013-01-01 22:31:00,
2013-01-01 17:36:00,26.1,13.8,29.79,WNW,283,1.0,5.0,59,0.00,,,0.00,WeatherCatV1.10B1784,2013-01-01 22:36:00,
2013-01-01 17:41:00,26.0,13.7,29.80,West,262,2.0,3.0,59,0.00,,,0.00,WeatherCatV1.10B1784,2013-01-01 22:41:00,
2013-01-01 17:46:00,25.9,13.6,29.81,WSW,246,2.0,5.0,59,0.00,,,0.00,WeatherCatV1.10B1784,2013-01-01 22:46:00,
2013-01-01 17:51:00,25.8,13.5,29.80,WNW,291,1.0,7.0,59,0.00,,,0.00,WeatherCatV1.10B1784,2013-01-01 22:51:00,
2013-01-01 17:56:00,25.8,13.5,29.81,West,278,5.0,12.0,59,0.00,,,0.00,WeatherCatV1.10B1784,2013-01-01 22:56:00,
2013-01-01 18:01:00,25.7,13.4,29.81,West,276,5.0,5.0,59,0.00,,,0.00,WeatherCatV1.10B1784,2013-01-01 23:01:00,
2013-01-01 18:06:00,25.5,13.6,29.81,WNW,285,2.0,5.0,60,0.00,,,0.00,WeatherCatV1.10B1784,2013-01-01 23:06:00,
2013-01-01 18:11:00,25.2,13.3,29.82,WNW,282,0.0,7.0,60,0.00,,,0.00,WeatherCatV1.10B1784,2013-01-01 23:11:00,
2013-01-01 18:16:00,25.1,13.2,29.82,WNW,282,2.0,5.0,60,0.00,,,0.00,WeatherCatV1.10B1784,2013-01-01 23:16:00,
2013-01-01 18:21:00,24.9,13.4,29.83,West,281,2.0,7.0,61,0.00,,,0.00,WeatherCatV1.10B1784,2013-01-01 23:21:00,
2013-01-01 18:26:00,24.8,13.3,29.83,NNW,344,0.0,7.0,61,0.00,,,0.00,WeatherCatV1.10B1784,2013-01-01 23:26:00,
2013-01-01 18:31:00,24.8,13.3,29.83,NW,313,2.0,6.0,61,0.00,,,0.00,WeatherCatV1.10B1784,2013-01-01 23:31:00,
2013-01-01 18:36:00,24.7,13.2,29.83,WNW,298,0.0,6.0,61,0.00,,,0.00,WeatherCatV1.10B1784,2013-01-01 23:36:00,
2013-01-01 18:41:00,24.6,13.1,29.83,West,281,3.0,3.0,61,0.00,,,0.00,WeatherCatV1.10B1784,2013-01-01 23:41:00,
2013-01-01 18:46:00,24.5,13.0,29.83,WNW,294,0.0,2.0,61,0.00,,,0.00,WeatherCatV1.10B1784,2013-01-01 23:46:00,
2013-01-01 18:51:00,24.4,12.9,29.83,WNW,286,4.0,6.0,61,0.00,,,0.00,WeatherCatV1.10B1784,2013-01-01 23:51:00,
2013-01-01 18:56:00,24.3,12.4,29.83,NW,317,3.0,5.0,60,0.00,,,0.00,WeatherCatV1.10B1784,2013-01-01 23:56:00,
2013-01-01 19:01:00,24.3,12.1,29.83,West,267,5.0,10.0,59,0.00,,,0.00,WeatherCatV1.10B1784,2013-01-02 00:01:00,
2013-01-01 19:06:00,24.2,12.0,29.84,NW,304,0.0,3.0,59,0.00,,,0.00,WeatherCatV1.10B1784,2013-01-02 00:06:00,
2013-01-01 19:11:00,24.0,11.8,29.84,WNW,294,1.0,4.0,59,0.00,,,0.00,WeatherCatV1.10B1784,2013-01-02 00:11:00,
2013-01-01 19:16:00,23.9,11.3,29.84,West,278,1.0,6.0,58,0.00,,,0.00,WeatherCatV1.10B1784,2013-01-02 00:16:00,
2013-01-01 19:21:00,23.7,11.1,29.85,NNW,337,0.0,3.0,58,0.00,,,0.00,WeatherCatV1.10B1784,2013-01-02 00:21:00,
2013-01-01 19:26:00,23.6,11.0,29.85,NNW,337,0.0,2.0,58,0.00,,,0.00,WeatherCatV1.10B1784,2013-01-02 00:26:00,
2013-01-01 19:31:00,23.5,11.3,29.84,NW,305,0.0,1.0,59,0.00,,,0.00,WeatherCatV1.10B1784,2013-01-02 00:31:00,
2013-01-01 19:36:00,23.2,11.0,29.85,NW,310,4.0,4.0,59,0.00,,,0.00,WeatherCatV1.10B1784,2013-01-02 00:36:00,
2013-01-01 19:41:00,23.2,10.6,29.85,NNW,348,1.0,7.0,58,0.00,,,0.00,WeatherCatV1.10B1784,2013-01-02 00:41:00,
2013-01-01 19:46:00,23.2,10.3,29.85,WNW,299,4.0,6.0,57,0.00,,,0.00,WeatherCatV1.10B1784,2013-01-02 00:46:00,
2013-01-01 19:51:00,23.3,10.3,29.85,North,353,6.0,7.0,57,0.00,,,0.00,WeatherCatV1.10B1784,2013-01-02 00:51:00,
2013-01-01 19:56:00,23.1,10.2,29.85,WNW,291,3.0,5.0,57,0.00,,,0.00,WeatherCatV1.10B1784,2013-01-02 00:56:00,
2013-01-01 20:01:00,23.0,9.7,29.85,NNE,13,2.0,13.0,56,0.00,,,0.00,WeatherCatV1.10B1784,2013-01-02 01:01:00,
2013-01-01 20:06:00,22.9,10.4,29.85,WNW,288,1.0,1.0,58,0.00,,,0.00,WeatherCatV1.10B1784,2013-01-02 01:06:00,
2013-01-01 20:11:00,22.6,9.7,29.85,WNW,290,0.0,2.0,57,0.00,,,0.00,WeatherCatV1.10B1784,2013-01-02 01:11:00,
2013-01-01 20:17:00,22.5,9.6,29.85,NNW,338,3.0,4.0,57,0.00,,,0.00,WeatherCatV1.10B1784,2013-01-02 01:17:00,
2013-01-01 20:22:00,22.4,9.5,29.85,NNW,329,2.0,3.0,57,0.00,,,0.00,WeatherCatV1.10B1784,2013-01-02 01:22:00,
2013-01-01 20:27:00,22.2,9.3,29.85,NW,325,0.0,4.0,57,0.00,,,0.00,WeatherCatV1.10B1784,2013-01-02 01:27:00,
2013-01-01 20:32:00,22.1,9.2,29.85,NW,304,5.0,7.0,57,0.00,,,0.00,WeatherCatV1.10B1784,2013-01-02 01:32:00,
2013-01-01 20:37:00,22.1,9.2,29.85,NW,315,3.0,7.0,57,0.00,,,0.00,WeatherCatV1.10B1784,2013-01-02 01:37:00,
2013-01-01 20:42:00,22.0,9.1,29.85,NW,320,4.0,5.0,57,0.00,,,0.00,WeatherCatV1.10B1784,2013-01-02 01:42:00,
2013-01-01 20:47:00,21.7,9.2,29.85,NNW,328,3.0,3.0,58,0.00,,,0.00,WeatherCatV1.10B1784,2013-01-02 01:47:00,
2013-01-01 20:52:00,21.5,8.7,29.85,NNW,328,1.0,2.0,57,0.00,,,0.00,WeatherCatV1.10B1784,2013-01-02 01:52:00,
2013-01-01 20:57:00,21.5,8.7,29.86,WNW,296,0.0,9.0,57,0.00,,,0.00,WeatherCatV1.10B1784,2013-01-02 01:57:00,
2013-01-01 21:02:00,21.2,8.4,29.86,WNW,303,4.0,5.0,57,0.00,,,0.00,WeatherCatV1.10B1784,2013-01-02 02:02:00,
2013-01-01 21:07:00,21.3,8.1,29.86,WNW,303,0.0,3.0,56,0.00,,,0.00,WeatherCatV1.10B1784,2013-01-02 02:07:00,
2013-01-01 21:12:00,21.1,8.3,29.86,WNW,301,0.0,0.0,57,0.00,,,0.00,WeatherCatV1.10B1784,2013-01-02 02:12:00,
2013-01-01 21:17:00,20.9,8.1,29.86,WNW,301,1.0,3.0,57,0.00,,,0.00,WeatherCatV1.10B1784,2013-01-02 02:17:00,
2013-01-01 21:22:00,20.7,7.9,29.86,WNW,302,0.0,0.0,57,0.00,,,0.00,WeatherCatV1.10B1784,2013-01-02 02:22:00,
2013-01-01 21:27:00,20.6,7.8,29.86,WNW,293,0.0,3.0,57,0.00,,,0.00,WeatherCatV1.10B1784,2013-01-02 02:27:00,
2013-01-01 21:32:00,20.5,7.7,29.87,WNW,293,0.0,1.0,57,0.00,,,0.00,WeatherCatV1.10B1784,2013-01-02 02:32:00,
2013-01-01 21:37:00,20.2,7.8,29.87,WNW,294,0.0,2.0,58,0.00,,,0.00,WeatherCatV1.10B1784,2013-01-02 02:37:00,
2013-01-01 21:42:00,20.0,7.6,29.87,WNW,294,0.0,0.0,58,0.00,,,0.00,WeatherCatV1.10B1784,2013-01-02 02:42:00,
2013-01-01 21:47:00,19.7,7.0,29.87,WNW,292,0.0,1.0,57,0.00,,,0.00,WeatherCatV1.10B1784,2013-01-02 02:47:00,
2013-01-01 21:52:00,19.5,7.2,29.87,WNW,292,0.0,2.0,58,0.00,,,0.00,WeatherCatV1.10B1784,2013-01-02 02:52:00,
2013-01-01 21:57:00,19.5,6.8,29.87,WNW,292,0.0,0.0,57,0.00,,,0.00,WeatherCatV1.10B1784,2013-01-02 02:57:00,
2013-01-01 22:02:00,19.5,7.2,29.87,WNW,292,0.0,0.0,58,0.00,,,0.00,WeatherCatV1.10B1784,2013-01-02 03:02:00,
2013-01-01 22:07:00,19.3,7.0,29.87,WNW,292,0.0,0.0,58,0.00,,,0.00,WeatherCatV1.10B1784,2013-01-02 03:07:00,
2013-01-01 22:12:00,18.9,7.0,29.88,WNW,292,0.0,0.0,59,0.00,,,0.00,WeatherCatV1.10B1784,2013-01-02 03:12:00,
2013-01-01 22:17:00,18.4,6.9,29.88,WNW,292,0.0,0.0,60,0.00,,,0.00,WeatherCatV1.10B1784,2013-01-02 03:17:00,
2013-01-01 22:22:00,18.4,6.5,29.88,WNW,292,0.0,4.0,59,0.00,,,0.00,WeatherCatV1.10B1784,2013-01-02 03:22:00,
2013-01-01 22:27:00,18.4,6.5,29.88,WNW,292,0.0,2.0,59,0.00,,,0.00,WeatherCatV1.10B1784,2013-01-02 03:27:00,
2013-01-01 22:32:00,18.4,6.1,29.89,WNW,292,0.0,0.0,58,0.00,,,0.00,WeatherCatV1.10B1784,2013-01-02 03:32:00,
2013-01-01 22:37:00,18.3,6.0,29.89,WNW,292,0.0,0.0,58,0.00,,,0.00,WeatherCatV1.10B1784,2013-01-02 03:37:00,
2013-01-01 22:42:00,18.1,6.2,29.89,WNW,292,0.0,0.0,59,0.00,,,0.00,WeatherCatV1.10B1784,2013-01-02 03:42:00,
2013-01-01 22:47:00,17.9,6.4,29.90,WNW,292,0.0,0.0,60,0.00,,,0.00,WeatherCatV1.10B1784,2013-01-02 03:47:00,
2013-01-01 22:52:00,17.4,6.6,29.90,WNW,292,0.0,0.0,62,0.00,,,0.00,WeatherCatV1.10B1784,2013-01-02 03:52:00,
2013-01-01 22:57:00,16.8,6.4,29.90,WNW,292,0.0,0.0,63,0.00,,,0.00,WeatherCatV1.10B1784,2013-01-02 03:57:00,
2013-01-01 23:02:00,16.2,6.2,29.90,WNW,292,0.0,0.0,64,0.00,,,0.00,WeatherCatV1.10B1784,2013-01-02 04:02:00,
2013-01-01 23:07:00,15.6,6.3,29.90,WNW,292,0.0,0.0,66,0.00,,,0.00,WeatherCatV1.10B1784,2013-01-02 04:07:00,
2013-01-01 23:12:00,15.0,6.1,29.90,WNW,292,0.0,0.0,67,0.00,,,0.00,WeatherCatV1.10B1784,2013-01-02 04:12:00,
2013-01-01 23:17:00,14.5,5.6,29.89,WNW,292,0.0,0.0,67,0.00,,,0.00,WeatherCatV1.10B1784,2013-01-02 04:17:00,
2013-01-01 23:22:00,14.3,5.7,29.89,WNW,292,0.0,0.0,68,0.00,,,0.00,WeatherCatV1.10B1784,2013-01-02 04:22:00,
2013-01-01 23:27:00,14.0,5.4,29.90,WNW,292,0.0,0.0,68,0.00,,,0.00,WeatherCatV1.10B1784,2013-01-02 04:27:00,
2013-01-01 23:32:00,14.0,5.7,29.90,NW,314,0.0,0.0,69,0.00,,,0.00,WeatherCatV1.10B1784,2013-01-02 04:32:00,
2013-01-01 23:37:00,14.2,5.9,29.90,NW,314,0.0,0.0,69,0.00,,,0.00,WeatherCatV1.10B1784,2013-01-02 04:37:00,
2013-01-01 23:42:00,14.3,5.7,29.90,NW,314,0.0,0.0,68,0.00,,,0.00,WeatherCatV1.10B1784,2013-01-02 04:42:00,
2013-01-01 23:47:00,14.5,5.9,29.90,NW,314,0.0,0.0,68,0.00,,,0.00,WeatherCatV1.10B1784,2013-01-02 04:47:00,
2013-01-01 23:52:00,14.4,5.8,29.89,NW,314,0.0,0.0,68,0.00,,,0.00,WeatherCatV1.10B1784,2013-01-02 04:52:00,
2013-01-01 23:57:00,14.1,5.5,29.90,NW,314,0.0,0.0,68,0.00,,,0.00,WeatherCatV1.10B1784,2013-01-02 04:57:00,